Regional Weather Roundup
Issued by NWS

Home | Current Version | Previous Version | Text Only | Print | Product List | Glossary Off
Versions: 1 2 3 4 5 6 7 8 9 10 11 12 13 14 15 16 17 18 19 20 21 22 23 24 25 26 27 28

000
ASUS45 KCYS 301110
RWRWY

WYOMING REGIONAL WEATHER ROUNDUP
NATIONAL WEATHER SERVICE CHEYENNE WY
500 AM MDT TUE MAY 30 2017

NOTE:  "FAIR" INDICATES FEW OR NO CLOUDS BELOW 12,000 FEET
WITH NO SIGNIFICANT WEATHER AND/OR OBSTRUCTIONS TO VISIBILITY.

WYZ001-301200-
YELLOWSTONE NATIONAL PARK

CITY           SKY/WX    TMP DP  RH WIND       PRES   REMARKS
LK YELLOWSTONE   N/A     29  28  96 CALM      30.32F
W YELLOWSTONE  NOT AVBL

$$
WYZ002>013-054>058-071-098>099-301200-
NORTHERN WYOMING

CITY           SKY/WX    TMP DP  RH WIND       PRES   REMARKS
JACKSON        FAIR      36  34  93 CALM      30.28R
CODY           FAIR      50  36  58 SW5       30.18S
GREYBULL       FAIR      47  31  53 S3        30.14R
WORLAND        FAIR      43  38  82 SE6       30.14S
SHERIDAN       FAIR      38  34  85 CALM      30.15R
BUFFALO        FAIR      46  30  53 W7        30.18S
GILLETTE       FAIR      46  35  65 CALM      30.15R
HULETT         FAIR      34  30  86 S7        30.17S WCI  28
NEWCASTLE      FAIR      37  30  75 N7        30.17R WCI  32

$$
WYZ014>020-022>026-101>103-301200-
CENTRAL WYOMING

CITY           SKY/WX    TMP DP  RH WIND       PRES   REMARKS
BIG PINEY      FAIR      34  30  85 NE5       30.29F WCI  30
PINEDALE       FAIR      32  32 100 NW8       30.31S WCI  25
DUBOIS         FAIR      36  32  87 W15       30.28S WCI  26
LANDER         FAIR      48  39  71 W6        30.20S
RIVERTON       FAIR      44  41  89 NW8       30.20S
CASPER         FAIR      40  37  89 W6        30.20S
DOUGLAS        FAIR      37  34  89 CALM      30.20S

$$
WYZ021-027>030-104>119-301200-
SOUTHERN WYOMING

CITY           SKY/WX    TMP DP  RH WIND       PRES   REMARKS
EVANSTON       FAIR      46  34  62 E8        30.25S
KEMMERER         N/A     43  32  65 N10       30.28S
FORT BRIDGER   FAIR      44  34  68 CALM      30.29R
ROCK SPRINGS   FAIR      48  33  56 E7        30.26R
DIXON            N/A     43  33  69 E6        30.28S
RAWLINS        FAIR      36  32  85 E6        30.27R WCI  31
SARATOGA       FAIR      41  32  70 SE9       30.28S
LARAMIE        FAIR      33  31  92 S8        30.27S WCI  26
CHEYENNE       FAIR      41  36  82 W8        30.23S
TORRINGTON     FAIR      41  37  86 CALM      30.16S
PINE BLUFFS    FAIR      36  36 100 MISG      30.21S

$$




USA.gov is the U.S. government's official web portal to all federal, state and local government web resources and services.